Total_Precipitation_Accumulation
0.01 0.02 0.03 0.23 0.47 1.43 3.61 2.54 3.65 1.92 1.87 1.41 1.60 1.39 2.42 1.67 1.22 1.40 1.68 1.26 0.98 0.45 0.68 0.48 0.27 0.17 1.47 0.59 0.34 0.23 0.11 0.46 0.16 1.45 0.93 0.36 0.18 0.15 0.21 0.27 0.27 0.30 0.37 0.36 0.56 0.78 1.00 0.53 0.49 0.73 0.70 0.43 0.39 0.42 0.44 0.17 0.05 0.04 0.04 0.03 0.03 0.01 0.01 0.01 0.01 0.02 0.02 0.02 0.01 0.01 0.04 0.05 0.08 0.08 0.08 0.06 0.03 0.07 0.11 0.10 0.11 0.16 0.20 0.14 0.10 0.25 0.33 0.41 0.26 0.19 0.26 0.32 0.27 0.34 0.32 0.33 0.37
0.26 0.05 0.05 0.34 0.64 2.46 2.10 1.16 1.28 1.61 1.24 1.30 1.46 1.56 1.61 1.31 1.46 0.91 1.24 2.07 0.77 0.41 0.16 0.19 0.27 0.46 0.29 0.06 0.07 0.07 0.09 0.12 0.27 0.15 0.22 0.16 0.26 0.18 0.15 0.18 0.21 0.21 0.22 0.25 0.46 0.46 0.45 0.67 0.62 0.53 0.60 0.56 0.25 0.45 0.50 0.12 0.06 0.03 0.05 0.04 0.01 0.01 0.01 0.02 0.02 0.02 0.02 0.01 0.01 0.03 0.05 0.06 0.06 0.05 0.05 0.05 0.09 0.13 0.10 0.11 0.11 0.09 0.26 0.21 0.15 0.19 0.25 0.18 0.32 0.32 0.38 0.42 0.30 0.33 0.37 0.29 0.39
0.08 0.09 0.28 0.30 0.89 0.91 1.43 1.23 1.87 1.39 1.66 1.48 1.13 1.72 1.51 1.41 1.06 1.06 1.54 1.67 0.62 0.18 0.21 0.56 0.50 0.28 0.17 0.43 0.21 0.11 0.21 0.14 0.12 0.08 0.22 0.23 0.39 0.58 0.16 0.12 0.13 0.12 0.13 0.24 0.34 0.41 0.45 0.64 0.34 0.40 0.51 0.30 0.13 0.16 0.12 0.09 0.07 0.08 0.03 0.01 0.01 0.02 0.02 0.04 0.02 0.05 0.03 0.07 0.06 0.04 0.07 0.04 0.06 0.06 0.08 0.07 0.18 0.18 0.12 0.19 0.13 0.23 0.25 0.20 0.21 0.32 0.26 0.21 0.31 0.24 0.29 0.52 0.40 0.38 0.35 0.29 0.19
0.14 0.12 0.54 0.37 2.21 0.79 1.88 1.60 0.95 1.35 1.69 0.92 1.06 0.99 1.33 0.91 1.08 1.02 0.82 0.64 0.49 0.47 0.43 0.26 1.06 0.27 0.55 0.23 0.11 0.05 0.15 0.21 0.08 0.02 0.40 0.25 0.14 0.21 0.15 0.10 0.11 0.12 0.13 0.24 0.32 0.33 0.25 0.25 0.17 0.21 0.29 0.16 0.13 0.19 0.13 0.10 0.04 0.04 0.02 0.02 0.02 0.02 0.03 0.07 0.07 0.07 0.05 0.05 0.03 0.06 0.04 0.04 0.09 0.13 0.13 0.12 0.11 0.15 0.18 0.14 0.16 0.23 0.28 0.16 0.23 0.22 0.17 0.18 0.14 0.26 0.31 0.36 0.32 0.34 0.29 0.43 0.23
0.10 0.09 0.39 0.95 1.22 2.00 1.02 1.28 1.18 1.09 1.56 1.07 1.75 0.84 1.24 1.41 1.05 0.89 0.86 0.62 0.56 0.27 0.44 0.38 0.44 0.59 0.60 0.56 0.22 0.26 0.23 0.07 0.09 0.04 0.08 0.12 0.08 0.16 0.17 0.10 0.12 0.08 0.12 0.17 0.16 0.18 0.23 0.16 0.19 0.20 0.14 0.12 0.08 0.14 0.09 0.06 0.05 0.03 0.02 0.02 0.02 0.02 0.04 0.08 0.06 0.06 0.03 0.06 0.05 0.08 0.11 0.12 0.21 0.24 0.24 0.15 0.15 0.12 0.12 0.16 0.16 0.24 0.17 0.26 0.33 0.24 0.17 0.21 0.15 0.20 0.24 0.28 0.36 0.30 0.30 0.37 0.24
0.30 0.20 0.33 1.13 3.18 1.53 1.16 1.08 1.28 1.17 1.15 0.66 1.52 1.72 1.42 1.55 1.36 0.88 0.74 0.94 0.52 0.58 0.41 0.72 0.30 0.18 0.19 0.14 0.03 0.11 0.08 0.22 0.11 0.10 0.04 0.13 0.11 0.06 0.10 0.05 0.11 0.08 0.11 0.13 0.14 0.10 0.22 0.19 0.18 0.11 0.08 0.07 0.04 0.05 0.05 0.04 0.03 0.02 0.04 0.05 0.07 0.05 0.10 0.08 0.11 0.07 0.07 0.06 0.13 0.16 0.25 0.22 0.28 0.27 0.25 0.22 0.22 0.18 0.13 0.17 0.24 0.23 0.17 0.20 0.23 0.15 0.16 0.19 0.23 0.22 0.23 0.14 0.36 0.24 0.38 0.50 0.43
0.40 0.35 1.00 0.80 1.37 0.90 1.70 1.15 0.75 0.96 1.17 1.01 1.58 1.35 1.82 1.97 1.78 1.09 0.80 0.52 0.47 0.47 0.21 0.21 0.05 0.06 0.15 0.13 0.05 0.09 0.05 0.03 0.10 0.06 0.02 0.08 0.05 0.03 0.07 0.11 0.14 0.13 0.15 0.16 0.13 0.15 0.15 0.10 0.09 0.14 0.07 0.07 0.05 0.06 0.05 0.05 0.09 0.03 0.06 0.03 0.04 0.03 0.07 0.08 0.05 0.06 0.22 0.13 0.12 0.15 0.29 0.20 0.22 0.23 0.32 0.27 0.25 0.22 0.23 0.23 0.22 0.27 0.15 0.21 0.22 0.17 0.18 0.11 0.14 0.21 0.30 0.29 0.30 0.34 0.54 0.54 0.60
0.32 1.44 1.17 1.22 2.09 1.18 1.15 0.62 0.80 0.39 1.04 0.79 1.07 1.40 2.03 1.14 0.76 1.26 0.67 0.81 0.39 0.48 0.44 0.13 0.31 0.66 0.56 0.05 0.46 0.21 0.08 0.06 0.06 0.03 0.02 0.04 0.05 0.06 0.09 0.11 0.10 0.16 0.18 0.10 0.14 0.11 0.24 0.08 0.06 0.08 0.05 0.04 0.03 0.05 0.03 0.04 0.05 0.06 0.10 0.08 0.13 0.07 0.07 0.07 0.14 0.12 0.10 0.14 0.13 0.18 0.17 0.21 0.23 0.22 0.37 0.37 0.27 0.29 0.42 0.21 0.24 0.20 0.21 0.19 0.14 0.15 0.20 0.10 0.09 0.36 0.42 0.41 0.45 0.44 0.65 0.56 0.61
0.85 0.94 1.29 1.33 1.37 0.87 0.63 0.91 0.83 0.51 0.86 1.12 1.62 1.67 1.72 1.51 0.86 1.06 0.77 1.03 0.83 0.36 0.32 0.14 0.20 0.50 0.31 0.23 0.29 0.20 0.13 0.04 0.04 0.02 0.04 0.06 0.05 0.07 0.09 0.11 0.07 0.12 0.12 0.13 0.12 0.10 0.12 0.08 0.06 0.09 0.04 0.02 0.03 0.04 0.06 0.04 0.05 0.07 0.07 0.03 0.04 0.12 0.10 0.12 0.12 0.12 0.09 0.12 0.11 0.11 0.21 0.16 0.23 0.31 0.28 0.25 0.24 0.20 0.21 0.27 0.20 0.25 0.17 0.16 0.16 0.19 0.20 0.20 0.27 0.37 0.43 0.43 0.47 0.39 0.43 0.55 0.61
1.12 0.84 1.94 1.14 0.79 1.06 0.54 0.62 0.84 1.12 1.47 1.06 1.47 1.59 1.41 1.33 1.06 0.87 0.49 0.60 0.70 0.41 0.31 0.13 0.09 0.62 0.27 0.35 0.21 0.19 0.19 0.05 0.03 0.07 0.05 0.04 0.03 0.06 0.08 0.10 0.07 0.09 0.11 0.13 0.11 0.07 0.06 0.15 0.07 0.05 0.03 0.03 0.03 0.04 0.04 0.03 0.05 0.10 0.04 0.04 0.06 0.08 0.14 0.09 0.13 0.13 0.09 0.11 0.16 0.17 0.26 0.21 0.26 0.30 0.23 0.17 0.19 0.16 0.16 0.16 0.17 0.15 0.18 0.12 0.09 0.12 0.14 0.17 0.51 0.36 0.47 0.46 0.44 0.40 0.30 0.45 0.51
1.41 0.63 0.88 1.06 1.06 1.13 0.84 0.91 0.53 0.63 0.90 1.13 1.16 1.89 1.60 1.25 0.79 1.17 0.69 0.98 0.27 0.29 0.12 0.08 0.18 0.26 0.19 0.34 0.40 0.25 0.08 0.03 0.04 0.08 0.05 0.04 0.06 0.11 0.10 0.11 0.08 0.08 0.11 0.10 0.05 0.05 0.07 0.09 0.14 0.05 0.08 0.02 0.02 0.03 0.09 0.04 0.07 0.09 0.03 0.04 0.05 0.09 0.08 0.07 0.16 0.09 0.15 0.10 0.11 0.10 0.15 0.20 0.28 0.18 0.17 0.20 0.18 0.09 0.16 0.11 0.18 0.23 0.11 0.11 0.06 0.09 0.12 0.15 0.20 0.24 0.36 0.38 0.28 0.37 0.48 0.40 0.39
1.41 1.21 1.01 1.12 1.11 0.81 0.82 0.96 0.50 0.88 1.23 1.01 1.73 1.69 1.30 0.84 0.70 0.64 0.75 0.44 0.36 0.31 0.15 0.08 0.30 0.14 0.20 0.14 0.31 0.37 0.11 0.04 0.06 0.04 0.06 0.07 0.10 0.05 0.05 0.11 0.06 0.07 0.05 0.06 0.04 0.08 0.05 0.10 0.14 0.21 0.07 0.03 0.04 0.07 0.03 0.09 0.07 0.07 0.05 0.06 0.04 0.08 0.06 0.07 0.10 0.13 0.08 0.06 0.08 0.11 0.18 0.16 0.24 0.19 0.17 0.16 0.13 0.13 0.16 0.15 0.14 0.17 0.08 0.10 0.08 0.06 0.13 0.18 0.30 0.31 0.31 0.36 0.28 0.35 0.49 0.39 0.34
0.93 0.79 1.25 0.56 0.99 0.63 0.55 0.90 1.17 1.08 0.60 1.27 1.74 1.46 1.39 1.02 1.05 1.22 0.67 1.07 0.50 0.43 0.23 0.32 0.07 0.14 0.41 0.34 0.33 0.19 0.15 0.08 0.05 0.04 0.06 0.05 0.06 0.04 0.04 0.05 0.07 0.10 0.04 0.03 0.04 0.04 0.06 0.06 0.07 0.10 0.12 0.06 0.09 0.04 0.08 0.09 0.05 0.04 0.04 0.03 0.04 0.05 0.06 0.11 0.09 0.08 0.08 0.08 0.09 0.05 0.08 0.11 0.09 0.11 0.07 0.06 0.10 0.11 0.11 0.22 0.16 0.16 0.12 0.10 0.06 0.11 0.11 0.22 0.27 0.29 0.32 0.40 0.22 0.27 0.29 0.30 0.36
0.25 0.40 1.02 1.17 0.27 0.61 0.84 0.49 0.54 0.96 0.88 0.53 1.14 1.34 1.50 1.29 0.89 1.21 1.25 0.53 0.70 0.77 0.20 0.18 0.10 0.13 0.20 0.15 0.61 0.27 0.14 0.09 0.07 0.08 0.04 0.05 0.05 0.07 0.05 0.06 0.11 0.07 0.04 0.03 0.05 0.07 0.09 0.09 0.11 0.05 0.08 0.11 0.28 0.14 0.07 0.07 0.03 0.05 0.02 0.04 0.04 0.03 0.05 0.06 0.05 0.07 0.07 0.08 0.03 0.07 0.07 0.05 0.09 0.10 0.12 0.14 0.06 0.07 0.08 0.13 0.11 0.19 0.07 0.05 0.05 0.10 0.12 0.20 0.22 0.34 0.31 0.25 0.15 0.26 0.33 0.34 0.26
0.59 0.28 0.29 0.27 0.49 0.17 0.36 0.90 0.41 0.45 1.35 1.08 1.08 1.37 1.15 1.37 1.19 0.86 1.33 1.07 0.75 0.75 0.22 0.05 0.10 0.10 0.21 0.04 0.26 0.08 0.10 0.11 0.05 0.04 0.06 0.05 0.04 0.05 0.04 0.06 0.08 0.08 0.07 0.06 0.06 0.08 0.07 0.06 0.06 0.09 0.06 0.05 0.09 0.10 0.22 0.09 0.07 0.06 0.03 0.04 0.03 0.07 0.06 0.05 0.02 0.03 0.03 0.03 0.04 0.03 0.04 0.06 0.04 0.05 0.08 0.06 0.04 0.06 0.08 0.04 0.06 0.04 0.07 0.13 0.04 0.09 0.19 0.19 0.24 0.24 0.20 0.15 0.15 0.21 0.17 0.20 0.22
0.06 0.05 0.43 0.57 0.94 1.13 0.26 0.32 0.08 0.19 0.79 1.44 1.11 1.41 1.32 1.15 1.41 0.93 0.94 1.58 0.55 0.22 0.26 0.27 0.05 0.26 0.10 0.08 0.03 0.03 0.04 0.04 0.05 0.05 0.06 0.10 0.08 0.08 0.08 0.09 0.10 0.09 0.08 0.08 0.10 0.05 0.05 0.06 0.06 0.08 0.04 0.05 0.05 0.08 0.14 0.06 0.09 0.06 0.09 0.06 0.12 0.10 0.04 0.05 0.01 0.04 0.05 0.05 0.02 0.05 0.07 0.07 0.06 0.06 0.10 0.08 0.07 0.06 0.03 0.07 0.06 0.10 0.06 0.04 0.08 0.06 0.07 0.11 0.08 0.07 0.12 0.11 0.13 0.21 0.16 0.22 0.33
0.02 0.13 0.42 0.61 1.02 0.62 0.35 0.38 0.19 0.88 0.45 0.64 1.72 1.42 1.33 1.18 1.10 1.78 1.01 0.99 0.79 0.35 0.61 0.42 0.38 0.08 0.03 0.07 0.06 0.07 0.03 0.02 0.04 0.06 0.08 0.19 0.18 0.18 0.16 0.18 0.15 0.15 0.15 0.10 0.08 0.05 0.06 0.07 0.04 0.07 0.04 0.04 0.03 0.12 0.08 0.06 0.12 0.09 0.11 0.18 0.13 0.04 0.07 0.05 0.01 0.02 0.06 0.09 0.08 0.07 0.10 0.12 0.07 0.06 0.11 0.08 0.08 0.06 0.01 0.03 0.05 0.08 0.06 0.07 0.05 0.04 0.08 0.09 0.04 0.13 0.14 0.07 0.11 0.16 0.12 0.21 0.22
0.08 0.38 0.22 0.37 0.99 0.73 0.35 0.56 0.13 0.16 0.74 0.36 0.81 1.45 1.63 1.21 0.82 1.00 0.96 0.99 1.07 0.53 0.43 0.33 0.22 0.05 0.04 0.04 0.04 0.02 0.02 0.03 0.07 0.06 0.12 0.14 0.16 0.19 0.25 0.23 0.15 0.13 0.13 0.13 0.08 0.07 0.08 0.06 0.05 0.07 0.07 0.04 0.06 0.06 0.08 0.06 0.08 0.12 0.08 0.08 0.12 0.09 0.06 0.07 0.12 0.08 0.18 0.09 0.09 0.05 0.14 0.27 0.13 0.18 0.22 0.12 0.21 0.14 0.09 0.08 0.09 0.11 0.09 0.10 0.08 0.04 0.05 0.03 0.07 0.13 0.11 0.08 0.16 0.14 0.05 0.33 0.25
0.05 0.08 0.09 0.40 0.29 0.59 0.17 0.27 0.40 0.34 0.71 0.26 0.34 0.48 0.95 1.03 0.93 1.07 1.05 0.60 0.41 0.37 0.39 0.37 0.10 0.04 0.05 0.03 0.02 0.02 0.02 0.05 0.07 0.03 0.04 0.07 0.09 0.06 0.09 0.12 0.12 0.12 0.18 0.09 0.08 0.04 0.06 0.05 0.04 0.04 0.06 0.04 0.12 0.06 0.05 0.04 0.06 0.07 0.04 0.04 0.12 0.08 0.14 0.06 0.16 0.12 0.12 0.07 0.11 0.16 0.21 0.15 0.12 0.15 0.28 0.15 0.19 0.06 0.06 0.07 0.09 0.11 0.08 0.09 0.03 0.02 0.03 0.04 0.13 0.13 0.07 0.11 0.13 0.06 0.23 0.19 0.16
0.01 0.08 0.11 0.81 0.26 0.50 0.18 0.02 0.34 0.06 0.18 0.57 0.54 0.41 0.61 0.95 1.18 0.69 1.05 0.69 0.28 0.24 0.18 0.12 0.05 0.05 0.04 0.06 0.03 0.03 0.05 0.04 0.03 0.02 0.03 0.06 0.04 0.04 0.06 0.07 0.07 0.05 0.05 0.05 0.05 0.04 0.08 0.05 0.04 0.02 0.05 0.05 0.07 0.12 0.09 0.04 0.06 0.10 0.09 0.09 0.08 0.08 0.08 0.11 0.18 0.10 0.08 0.10 0.12 0.23 0.13 0.10 0.10 0.23 0.08 0.06 0.11 0.14 0.22 0.05 0.08 0.09 0.04 0.04 0.05 0.12 0.07 0.07 0.07 0.07 0.04 0.07 0.09 0.19 0.28 0.24 0.14
0.00 0.00 0.08 0.51 0.35 0.45 0.41 0.20 0.03 0.13 0.14 0.45 0.39 0.45 0.72 0.96 0.89 0.84 0.61 0.32 0.51 0.43 0.06 0.04 0.02 0.01 0.02 0.02 0.04 0.02 0.04 0.04 0.04 0.02 0.08 0.04 0.04 0.03 0.02 0.03 0.02 0.04 0.05 0.03 0.04 0.04 0.04 0.03 0.04 0.04 0.05 0.07 0.07 0.10 0.04 0.05 0.04 0.06 0.07 0.07 0.06 0.11 0.06 0.07 0.08 0.08 0.10 0.13 0.04 0.22 0.14 0.08 0.09 0.07 0.05 0.20 0.38 0.35 0.48 0.35 0.39 0.41 0.41 0.40 0.18 0.25 0.34 0.31 0.39 0.26 0.21 0.17 0.12 0.15 0.07 0.16 0.12
0.00 0.01 0.10 0.01 0.27 0.10 0.16 0.22 0.01 0.10 0.02 0.46 0.51 0.49 0.85 0.61 0.53 0.88 0.99 0.60 0.46 0.26 0.13 0.05 0.01 0.00 0.02 0.02 0.03 0.01 0.02 0.02 0.02 0.02 0.05 0.05 0.02 0.03 0.03 0.03 0.05 0.03 0.04 0.06 0.03 0.04 0.03 0.02 0.02 0.03 0.04 0.05 0.07 0.07 0.05 0.06 0.05 0.05 0.03 0.07 0.08 0.07 0.04 0.05 0.04 0.07 0.06 0.08 0.14 0.04 0.04 0.02 0.06 0.08 0.12 0.14 0.30 0.25 0.43 0.49 0.38 0.34 0.25 0.41 0.26 0.58 0.31 0.31 0.63 0.17 0.22 0.26 0.17 0.13 0.17 0.08 0.05
0.00 0.02 0.00 0.02 0.15 0.19 0.35 0.15 0.02 0.00 0.27 0.16 0.25 0.15 0.26 0.43 0.86 0.62 0.63 1.06 1.26 0.43 0.04 0.02 0.02 0.00 0.01 0.03 0.01 0.02 0.01 0.01 0.01 0.01 0.02 0.06 0.02 0.01 0.01 0.01 0.03 0.06 0.05 0.05 0.01 0.03 0.04 0.05 0.04 0.03 0.04 0.06 0.08 0.08 0.07 0.06 0.07 0.04 0.06 0.05 0.07 0.06 0.04 0.04 0.06 0.07 0.11 0.06 0.06 0.04 0.05 0.02 0.02 0.08 0.06 0.07 0.22 0.36 0.78 0.41 0.59 0.72 0.71 0.71 0.34 0.50 0.18 0.33 0.41 0.17 0.12 0.25 0.13 0.16 0.07 0.04 0.04
0.00 0.00 0.00 0.01 0.02 0.09 0.03 0.08 0.00 0.01 0.01 0.23 0.17 0.01 0.44 0.24 0.59 0.30 0.48 0.69 0.55 0.44 0.31 0.04 0.06 0.01 0.00 0.01 0.00 0.01 0.00 0.00 0.01 0.01 0.01 0.02 0.00 0.00 0.01 0.01 0.02 0.01 0.02 0.04 0.04 0.03 0.02 0.03 0.03 0.04 0.04 0.05 0.06 0.08 0.06 0.06 0.06 0.04 0.04 0.05 0.05 0.02 0.02 0.05 0.03 0.05 0.04 0.03 0.03 0.02 0.01 0.07 0.12 0.01 0.06 0.05 0.05 0.29 0.34 0.41 0.12 0.46 0.39 0.17 0.12 0.14 0.24 0.35 0.14 0.22 0.34 0.18 0.19 0.12 0.05 0.03 0.12
0.00 0.00 0.00 0.01 0.00 0.04 0.01 0.00 0.00 0.00 0.00 0.00 0.02 0.06 0.49 0.53 0.41 0.33 0.51 0.43 0.30 0.44 0.57 0.18 0.02 0.00 0.01 0.00 0.00 0.01 0.02 0.03 0.04 0.03 0.02 0.01 0.02 0.01 0.01 0.01 0.01 0.01 0.02 0.03 0.02 0.04 0.02 0.03 0.05 0.04 0.05 0.04 0.07 0.04 0.04 0.07 0.04 0.03 0.04 0.06 0.07 0.03 0.03 0.04 0.02 0.03 0.03 0.02 0.02 0.03 0.01 0.01 0.01 0.02 0.03 0.04 0.21 0.23 0.09 0.24 0.40 0.30 0.10 0.25 0.11 0.23 0.07 0.18 0.21 0.23 0.27 0.35 0.09 0.21 0.05 0.12 0.02
0.00 0.00 0.00 0.00 0.00 0.00 0.01 0.00 0.00 0.00 0.02 0.01 0.03 0.31 0.07 0.13 0.13 0.28 0.13 0.37 0.13 0.29 0.23 0.03 0.02 0.00 0.00 0.01 0.00 0.01 0.01 0.01 0.02 0.02 0.02 0.01 0.03 0.02 0.03 0.01 0.01 0.01 0.00 0.01 0.01 0.01 0.02 0.02 0.02 0.02 0.02 0.03 0.04 0.06 0.03 0.04 0.04 0.05 0.03 0.03 0.04 0.04 0.02 0.05 0.02 0.02 0.01 0.01 0.02 0.02 0.02 0.01 0.03 0.04 0.10 0.12 0.04 0.14 0.09 0.05 0.16 0.29 0.24 0.30 0.27 0.13 0.14 0.15 0.19 0.16 0.08 0.19 0.13 0.08 0.06 0.28 0.04
0.00 0.00 0.00 0.00 0.00 0.00 0.00 0.00 0.00 0.00 0.00 0.02 0.08 0.16 0.18 0.29 0.06 0.65 0.10 0.12 0.04 0.07 0.10 0.04 0.03 0.00 0.01 0.00 0.01 0.00 0.00 0.01 0.02 0.01 0.02 0.03 0.01 0.02 0.01 0.00 0.00 0.00 0.01 0.01 0.01 0.02 0.02 0.01 0.01 0.03 0.03 0.04 0.05 0.04 0.02 0.03 0.02 0.03 0.02 0.03 0.04 0.08 0.04 0.05 0.02 0.01 0.01 0.01 0.00 0.01 0.01 0.03 0.07 0.08 0.13 0.05 0.05 0.04 0.06 0.06 0.16 0.23 0.28 0.36 0.19 0.15 0.10 0.15 0.12 0.06 0.07 0.15 0.14 0.06 0.25 0.05 0.02
0.00 0.00 0.00 0.00 0.00 0.00 0.00 0.00 0.00 0.00 0.02 0.00 0.04 0.19 0.04 0.15 0.10 0.47 0.08 0.09 0.02 0.11 0.07 0.03 0.02 0.01 0.00 0.00 0.01 0.00 0.01 0.00 0.00 0.01 0.01 0.02 0.00 0.00 0.01 0.01 0.00 0.00 0.01 0.01 0.01 0.01 0.01 0.01 0.01 0.01 0.03 0.03 0.02 0.01 0.02 0.04 0.03 0.02 0.02 0.02 0.03 0.03 0.01 0.01 0.01 0.00 0.02 0.01 0.02 0.07 0.04 0.04 0.04 0.07 0.09 0.13 0.12 0.07 0.15 0.10 0.22 0.17 0.22 0.09 0.10 0.14 0.16 0.17 0.14 0.21 0.08 0.03 0.14 0.16 0.18 0.04 0.01
0.00 0.00 0.00 0.00 0.00 0.00 0.00 0.00 0.00 0.00 0.00 0.01 0.03 0.00 0.05 0.18 0.36 0.08 0.05 0.17 0.05 0.07 0.09 0.05 0.04 0.02 0.01 0.00 0.00 0.01 0.01 0.01 0.01 0.00 0.00 0.00 0.00 0.00 0.00 0.00 0.00 0.00 0.00 0.00 0.00 0.00 0.01 0.01 0.01 0.01 0.02 0.02 0.01 0.02 0.02 0.01 0.06 0.02 0.04 0.01 0.02 0.02 0.01 0.01 0.01 0.00 0.00 0.01 0.03 0.01 0.04 0.06 0.06 0.04 0.04 0.05 0.03 0.11 0.11 0.12 0.09 0.07 0.15 0.24 0.06 0.09 0.11 0.11 0.14 0.22 0.31 0.09 0.12 0.11 0.06 0.02 0.00
0.00 0.00 0.00 0.00 0.00 0.00 0.00 0.00 0.00 0.00 0.00 0.00 0.00 0.32 0.13 0.19 0.05 0.06 0.07 0.02 0.05 0.06 0.04 0.07 0.03 0.02 0.01 0.00 0.00 0.00 0.00 0.02 0.01 0.00 0.00 0.00 0.00 0.00 0.00 0.00 0.00 0.00 0.00 0.01 0.01 0.00 0.01 0.00 0.01 0.01 0.01 0.02 0.01 0.02 0.01 0.02 0.02 0.01 0.02 0.01 0.01 0.01 0.01 0.03 0.01 0.00 0.01 0.00 0.01 0.06 0.04 0.05 0.05 0.04 0.03 0.06 0.07 0.07 0.06 0.13 0.08 0.08 0.08 0.08 0.07 0.09 0.25 0.16 0.17 0.11 0.09 0.09 0.09 0.07 0.03 0.03 0.04
0.00 0.00 0.00 0.00 0.00 0.00 0.00 0.00 0.00 0.00 0.00 0.00 0.00 0.13 0.37 0.04 0.04 0.03 0.04 0.03 0.06 0.08 0.11 0.05 0.07 0.05 0.02 0.01 0.01 0.01 0.00 0.01 0.01 0.00 0.00 0.00 0.00 0.00 0.00 0.00 0.00 0.00 0.00 0.00 0.00 0.00 0.01 0.00 0.00 0.01 0.01 0.02 0.02 0.01 0.01 0.01 0.00 0.01 0.00 0.00 0.01 0.00 0.00 0.01 0.00 0.01 0.01 0.02 0.01 0.05 0.04 0.04 0.02 0.05 0.04 0.05 0.08 0.07 0.10 0.05 0.07 0.08 0.05 0.09 0.11 0.07 0.19 0.13 0.15 0.17 0.04 0.08 0.05 0.04 0.04 0.03 0.01
0.00 0.00 0.00 0.00 0.00 0.00 0.00 0.00 0.00 0.00 0.00 0.00 0.00 0.07 0.23 0.18 0.02 0.04 0.03 0.04 0.02 0.20 0.34 0.09 0.07 0.08 0.07 0.03 0.01 0.02 0.01 0.01 0.01 0.00 0.00 0.00 0.00 0.01 0.00 0.00 0.00 0.00 0.00 0.00 0.00 0.00 0.01 0.00 0.00 0.00 0.00 0.02 0.02 0.01 0.00 0.00 0.00 0.00 0.00 0.00 0.00 0.00 0.00 0.00 0.00 0.00 0.00 0.00 0.01 0.02 0.02 0.05 0.04 0.06 0.07 0.07 0.08 0.09 0.12 0.27 0.12 0.20 0.08 0.10 0.22 0.16 0.09 0.19 0.25 0.20 0.11 0.15 0.04 0.03 0.02 0.03 0.01
0.00 0.00 0.00 0.00 0.00 0.00 0.00 0.00 0.00 0.00 0.06 0.00 0.00 0.08 0.05 0.22 0.02 0.03 0.03 0.06 0.06 0.08 0.22 0.07 0.05 0.05 0.03 0.02 0.03 0.02 0.01 0.00 0.00 0.00 0.00 0.00 0.01 0.00 0.00 0.00 0.00 0.00 0.00 0.00 0.00 0.00 0.00 0.00 0.00 0.00 0.01 0.01 0.01 0.01 0.00 0.00 0.00 0.00 0.00 0.00 0.00 0.01 0.01 0.00 0.05 0.01 0.00 0.01 0.01 0.02 0.05 0.05 0.05 0.04 0.05 0.05 0.08 0.09 0.09 0.08 0.13 0.15 0.12 0.14 0.08 0.19 0.24 0.09 0.35 0.11 0.09 0.07 0.03 0.03 0.02 0.03 0.02
0.00 0.00 0.00 0.00 0.00 0.00 0.00 0.00 0.00 0.00 0.00 0.00 0.00 0.00 0.13 0.31 0.04 0.07 0.06 0.03 0.05 0.12 0.14 0.07 0.17 0.09 0.02 0.05 0.02 0.05 0.02 0.01 0.02 0.00 0.00 0.00 0.00 0.00 0.00 0.00 0.00 0.00 0.00 0.00 0.00 0.00 0.00 0.00 0.00 0.00 0.01 0.01 0.00 0.00 0.00 0.00 0.00 0.00 0.00 0.01 0.00 0.01 0.01 0.00 0.00 0.01 0.01 0.01 0.02 0.02 0.02 0.03 0.03 0.05 0.06 0.10 0.09 0.07 0.11 0.07 0.24 0.25 0.20 0.15 0.17 0.11 0.40 0.17 0.08 0.10 0.19 0.09 0.04 0.05 0.03 0.03 0.02
0.00 0.00 0.00 0.00 0.00 0.00 0.00 0.00 0.00 0.00 0.00 0.00 0.00 0.00 0.02 0.19 0.09 0.09 0.02 0.06 0.07 0.08 0.22 0.10 0.07 0.27 0.33 0.06 0.00 0.02 0.03 0.00 0.03 0.01 0.01 0.00 0.00 0.00 0.00 0.00 0.00 0.00 0.00 0.00 0.00 0.00 0.00 0.00 0.00 0.00 0.00 0.01 0.01 0.00 0.00 0.00 0.00 0.00 0.00 0.00 0.01 0.00 0.01 0.00 0.00 0.01 0.01 0.00 0.01 0.02 0.02 0.02 0.03 0.07 0.10 0.07 0.04 0.09 0.05 0.10 0.07 0.11 0.07 0.20 0.14 0.18 0.24 0.22 0.18 0.07 0.07 0.10 0.03 0.03 0.03 0.01 0.00
0.00 0.00 0.00 0.00 0.00 0.00 0.00 0.00 0.00 0.00 0.00 0.00 0.00 0.00 0.00 0.04 0.10 0.03 0.07 0.07 0.10 0.19 0.40 0.08 0.13 0.06 0.17 0.18 0.09 0.03 0.00 0.03 0.01 0.02 0.00 0.00 0.00 0.00 0.00 0.00 0.00 0.00 0.00 0.00 0.00 0.00 0.00 0.00 0.00 0.00 0.00 0.00 0.01 0.00 0.01 0.02 0.03 0.00 0.00 0.00 0.02 0.00 0.00 0.01 0.00 0.00 0.00 0.00 0.01 0.01 0.00 0.01 0.02 0.05 0.05 0.03 0.09 0.13 0.29 0.05 0.22 0.16 0.13 0.13 0.39 0.16 0.26 0.28 0.15 0.23 0.07 0.11 0.09 0.04 0.02 0.01 0.00
0.00 0.00 0.00 0.00 0.00 0.00 0.00 0.00 0.00 0.00 0.00 0.00 0.00 0.00 0.00 0.06 0.05 0.10 0.04 0.01 0.09 0.24 0.18 0.11 0.07 0.10 0.08 0.13 0.42 0.07 0.07 0.04 0.01 0.02 0.01 0.00 0.00 0.00 0.00 0.00 0.00 0.00 0.00 0.00 0.00 0.00 0.00 0.00 0.00 0.00 0.00 0.00 0.00 0.00 0.04 0.01 0.01 0.00 0.00 0.01 0.02 0.02 0.02 0.01 0.01 0.00 0.00 0.00 0.00 0.00 0.00 0.01 0.01 0.01 0.02 0.04 0.02 0.05 0.10 0.14 0.14 0.17 0.13 0.22 0.22 0.27 0.14 0.26 0.11 0.16 0.09 0.05 0.07 0.03 0.02 0.00 0.00
0.00 0.00 0.00 0.00 0.00 0.00 0.00 0.00 0.00 0.00 0.00 0.00 0.00 0.00 0.00 0.07 0.09 0.05 0.05 0.03 0.03 0.12 0.19 0.32 0.34 0.14 0.11 0.29 0.29 0.07 0.10 0.05 0.02 0.02 0.01 0.01 0.00 0.01 0.00 0.00 0.00 0.00 0.00 0.00 0.00 0.00 0.00 0.00 0.00 0.00 0.00 0.00 0.00 0.00 0.01 0.02 0.00 0.00 0.00 0.00 0.00 0.03 0.02 0.01 0.01 0.01 0.03 0.02 0.01 0.00 0.01 0.00 0.00 0.00 0.02 0.03 0.04 0.03 0.09 0.10 0.15 0.22 0.15 0.17 0.14 0.25 0.18 0.18 0.05 0.11 0.07 0.09 0.04 0.06 0.02 0.01 0.00
0.00 0.00 0.00 0.00 0.00 0.00 0.00 0.00 0.00 0.00 0.00 0.00 0.00 0.00 0.00 0.00 0.04 0.06 0.03 0.06 0.04 0.02 0.06 0.08 0.37 0.42 0.19 0.25 0.41 0.39 0.08 0.05 0.03 0.02 0.03 0.01 0.00 0.00 0.00 0.00 0.00 0.00 0.00 0.00 0.00 0.00 0.00 0.00 0.00 0.00 0.00 0.00 0.00 0.00 0.00 0.00 0.00 0.00 0.00 0.00 0.00 0.02 0.00 0.01 0.02 0.01 0.01 0.02 0.02 0.00 0.01 0.00 0.01 0.00 0.01 0.02 0.01 0.06 0.08 0.15 0.15 0.22 0.07 0.15 0.12 0.07 0.07 0.10 0.17 0.10 0.04 0.05 0.04 0.02 0.02 0.00 0.00
0.00 0.00 0.00 0.00 0.00 0.00 0.00 0.00 0.00 0.00 0.00 0.00 0.00 0.00 0.01 0.00 0.00 0.03 0.02 0.07 0.12 0.02 0.02 0.02 0.27 0.40 0.08 0.05 0.22 0.35 0.38 0.05 0.04 0.01 0.01 0.00 0.02 0.01 0.00 0.00 0.00 0.00 0.00 0.00 0.00 0.00 0.00 0.00 0.00 0.00 0.00 0.00 0.00 0.00 0.00 0.00 0.00 0.00 0.00 0.00 0.00 0.01 0.03 0.01 0.01 0.01 0.01 0.06 0.02 0.01 0.01 0.02 0.02 0.01 0.06 0.06 0.13 0.10 0.07 0.09 0.08 0.11 0.06 0.12 0.11 0.18 0.09 0.08 0.09 0.13 0.06 0.04 0.02 0.08 0.05 0.01 0.00
0.00 0.00 0.00 0.00 0.00 0.00 0.00 0.00 0.00 0.00 0.00 0.00 0.00 0.00 0.00 0.00 0.00 0.01 0.03 0.00 0.09 0.07 0.03 0.02 0.05 0.22 0.30 0.13 0.09 0.22 0.48 0.35 0.09 0.04 0.00 0.01 0.00 0.01 0.00 0.00 0.00 0.00 0.00 0.00 0.00 0.00 0.00 0.00 0.00 0.00 0.00 0.00 0.00 0.00 0.00 0.00 0.03 0.02 0.01 0.00 0.01 0.00 0.00 0.01 0.01 0.02 0.02 0.03 0.01 0.02 0.02 0.04 0.02 0.03 0.01 0.05 0.05 0.05 0.04 0.06 0.05 0.06 0.07 0.04 0.05 0.07 0.13 0.10 0.08 0.08 0.03 0.07 0.02 0.06 0.05 0.02 0.01
0.00 0.00 0.00 0.00 0.00 0.00 0.00 0.00 0.00 0.00 0.00 0.00 0.00 0.02 0.00 0.00 0.00 0.01 0.00 0.00 0.01 0.01 0.02 0.06 0.06 0.02 0.18 0.06 0.07 0.10 0.28 0.15 0.12 0.10 0.02 0.00 0.01 0.04 0.00 0.00 0.00 0.00 0.00 0.00 0.00 0.00 0.00 0.00 0.00 0.00 0.00 0.00 0.00 0.00 0.00 0.00 0.02 0.00 0.01 0.04 0.06 0.01 0.04 0.01 0.01 0.00 0.01 0.01 0.03 0.02 0.03 0.07 0.03 0.01 0.01 0.01 0.01 0.02 0.04 0.03 0.01 0.04 0.11 0.05 0.05 0.05 0.05 0.05 0.04 0.06 0.04 0.02 0.02 0.01 0.02 0.05 0.01
0.00 0.00 0.00 0.00 0.00 0.00 0.00 0.00 0.00 0.00 0.01 0.00 0.00 0.00 0.01 0.00 0.00 0.00 0.01 0.01 0.01 0.03 0.01 0.02 0.08 0.05 0.14 0.06 0.08 0.07 0.08 0.12 0.14 0.08 0.04 0.04 0.01 0.01 0.00 0.00 0.00 0.00 0.00 0.00 0.01 0.00 0.00 0.00 0.00 0.00 0.00 0.00 0.00 0.00 0.00 0.00 0.00 0.00 0.01 0.02 0.01 0.01 0.01 0.00 0.01 0.01 0.01 0.00 0.01 0.00 0.05 0.06 0.04 0.03 0.06 0.01 0.01 0.02 0.04 0.03 0.03 0.03 0.01 0.05 0.03 0.01 0.05 0.07 0.08 0.02 0.01 0.01 0.02 0.03 0.01 0.03 0.01
0.00 0.00 0.00 0.00 0.00 0.00 0.00 0.00 0.00 0.00 0.00 0.00 0.00 0.00 0.04 0.02 0.00 0.00 0.00 0.00 0.00 0.01 0.01 0.03 0.04 0.02 0.09 0.11 0.06 0.05 0.05 0.03 0.04 0.02 0.05 0.01 0.02 0.01 0.00 0.00 0.01 0.00 0.00 0.00 0.01 0.00 0.00 0.00 0.00 0.00 0.00 0.00 0.00 0.00 0.00 0.00 0.00 0.01 0.03 0.01 0.00 0.00 0.00 0.00 0.00 0.00 0.00 0.00 0.02 0.01 0.01 0.03 0.01 0.02 0.01 0.01 0.07 0.01 0.01 0.03 0.05 0.02 0.01 0.01 0.02 0.03 0.01 0.04 0.02 0.02 0.02 0.04 0.02 0.02 0.02 0.02 0.07
0.00 0.00 0.00 0.00 0.00 0.00 0.00 0.00 0.00 0.00 0.00 0.02 0.00 0.00 0.03 0.00 0.00 0.00 0.00 0.02 0.00 0.01 0.01 0.01 0.03 0.01 0.03 0.08 0.09 0.08 0.09 0.06 0.02 0.03 0.06 0.01 0.02 0.00 0.01 0.00 0.02 0.00 0.00 0.00 0.00 0.00 0.00 0.00 0.00 0.00 0.00 0.00 0.00 0.00 0.00 0.00 0.00 0.01 0.00 0.01 0.00 0.00 0.00 0.00 0.00 0.00 0.00 0.00 0.00 0.01 0.00 0.01 0.00 0.01 0.00 0.01 0.01 0.00 0.00 0.02 0.03 0.02 0.01 0.01 0.01 0.02 0.03 0.02 0.02 0.02 0.02 0.02 0.02 0.02 0.01 0.01 0.01
0.00 0.00 0.00 0.00 0.00 0.00 0.00 0.00 0.00 0.00 0.00 0.00 0.00 0.00 0.01 0.00 0.00 0.00 0.00 0.00 0.01 0.00 0.00 0.01 0.03 0.01 0.03 0.02 0.07 0.06 0.08 0.03 0.06 0.09 0.02 0.04 0.03 0.00 0.01 0.02 0.00 0.00 0.00 0.00 0.00 0.00 0.00 0.00 0.00 0.00 0.00 0.00 0.00 0.00 0.00 0.00 0.00 0.00 0.01 0.00 0.00 0.00 0.00 0.00 0.00 0.00 0.00 0.00 0.00 0.00 0.00 0.00 0.00 0.01 0.00 0.00 0.00 0.00 0.00 0.01 0.02 0.06 0.01 0.01 0.00 0.01 0.02 0.02 0.02 0.01 0.02 0.02 0.02 0.02 0.02 0.01 0.01
0.00 0.00 0.00 0.00 0.00 0.00 0.00 0.00 0.00 0.00 0.00 0.00 0.00 0.00 0.00 0.02 0.01 0.00 0.01 0.01 0.00 0.01 0.01 0.00 0.00 0.00 0.02 0.06 0.05 0.02 0.06 0.06 0.03 0.03 0.05 0.04 0.04 0.04 0.01 0.01 0.01 0.00 0.00 0.00 0.00 0.00 0.00 0.00 0.00 0.00 0.00 0.00 0.00 0.00 0.00 0.00 0.00 0.00 0.00 0.00 0.00 0.00 0.00 0.00 0.00 0.00 0.00 0.00 0.00 0.00 0.00 0.00 0.00 0.01 0.00 0.00 0.00 0.00 0.00 0.00 0.00 0.01 0.04 0.01 0.01 0.01 0.01 0.03 0.05 0.08 0.01 0.01 0.02 0.02 0.03 0.02 0.01
0.00 0.00 0.00 0.00 0.00 0.00 0.00 0.00 0.00 0.00 0.00 0.00 0.00 0.00 0.00 0.01 0.00 0.00 0.00 0.00 0.00 0.00 0.00 0.00 0.00 0.00 0.00 0.02 0.01 0.02 0.01 0.04 0.04 0.08 0.05 0.05 0.12 0.16 0.05 0.02 0.03 0.02 0.01 0.00 0.00 0.00 0.00 0.00 0.00 0.00 0.00 0.00 0.00 0.00 0.00 0.00 0.00 0.00 0.00 0.00 0.00 0.00 0.00 0.00 0.00 0.00 0.00 0.00 0.00 0.00 0.01 0.00 0.00 0.00 0.00 0.00 0.00 0.02 0.00 0.00 0.00 0.00 0.00 0.01 0.01 0.01 0.02 0.02 0.02 0.01 0.01 0.02 0.02 0.01 0.02 0.02 0.02
0.00 0.00 0.00 0.00 0.00 0.00 0.00 0.00 0.00 0.00 0.00 0.00 0.00 0.00 0.00 0.00 0.01 0.00 0.00 0.00 0.00 0.00 0.00 0.00 0.00 0.00 0.01 0.01 0.01 0.00 0.01 0.02 0.05 0.06 0.03 0.05 0.09 0.03 0.03 0.01 0.00 0.00 0.00 0.00 0.01 0.00 0.00 0.00 0.00 0.00 0.00 0.00 0.00 0.00 0.00 0.00 0.00 0.00 0.00 0.00 0.00 0.00 0.00 0.00 0.00 0.00 0.00 0.00 0.00 0.00 0.00 0.00 0.00 0.00 0.00 0.00 0.00 0.00 0.00 0.00 0.00 0.00 0.01 0.00 0.02 0.02 0.01 0.02 0.02 0.02 0.01 0.01 0.01 0.02 0.02 0.02 0.01
0.00 0.00 0.00 0.00 0.00 0.00 0.00 0.00 0.00 0.00 0.00 0.00 0.00 0.00 0.00 0.00 0.00 0.00 0.00 0.00 0.00 0.00 0.00 0.00 0.00 0.00 0.00 0.00 0.00 0.00 0.00 0.00 0.02 0.07 0.02 0.10 0.05 0.08 0.02 0.02 0.00 0.00 0.01 0.00 0.00 0.00 0.00 0.00 0.00 0.00 0.00 0.00 0.00 0.00 0.00 0.00 0.00 0.00 0.00 0.00 0.00 0.00 0.00 0.00 0.00 0.00 0.00 0.00 0.00 0.00 0.00 0.00 0.00 0.00 0.00 0.00 0.00 0.00 0.00 0.00 0.00 0.00 0.00 0.00 0.00 0.00 0.01 0.02 0.02 0.02 0.01 0.01 0.01 0.01 0.01 0.01 0.01
0.00 0.00 0.00 0.00 0.00 0.00 0.00 0.00 0.00 0.00 0.01 0.00 0.00 0.00 0.00 0.02 0.00 0.00 0.00 0.00 0.00 0.00 0.00 0.00 0.00 0.00 0.00 0.00 0.00 0.01 0.00 0.00 0.02 0.03 0.02 0.03 0.04 0.00 0.05 0.02 0.02 0.01 0.00 0.00 0.00 0.00 0.00 0.00 0.00 0.00 0.00 0.00 0.00 0.00 0.00 0.00 0.00 0.00 0.00 0.00 0.00 0.00 0.00 0.00 0.00 0.00 0.00 0.00 0.00 0.00 0.00 0.00 0.00 0.00 0.00 0.02 0.00 0.00 0.00 0.00 0.00 0.00 0.00 0.00 0.00 0.01 0.01 0.02 0.02 0.02 0.01 0.01 0.01 0.01 0.01 0.01 0.01
0.00 0.00 0.00 0.00 0.00 0.00 0.00 0.00 0.00 0.00 0.00 0.00 0.00 0.00 0.00 0.00 0.00 0.00 0.00 0.00 0.00 0.00 0.00 0.00 0.00 0.00 0.00 0.00 0.00 0.01 0.00 0.00 0.02 0.01 0.02 0.05 0.03 0.10 0.03 0.04 0.02 0.00 0.01 0.02 0.00 0.00 0.00 0.00 0.00 0.00 0.00 0.00 0.00 0.00 0.00 0.00 0.00 0.00 0.00 0.00 0.00 0.00 0.00 0.00 0.01 0.00 0.00 0.00 0.00 0.00 0.00 0.00 0.00 0.01 0.00 0.01 0.00 0.00 0.00 0.00 0.00 0.00 0.00 0.00 0.00 0.01 0.01 0.01 0.01 0.02 0.01 0.01 0.01 0.00 0.00 0.01 0.01
0.00 0.00 0.00 0.00 0.00 0.00 0.00 0.00 0.00 0.00 0.00 0.00 0.00 0.00 0.00 0.00 0.00 0.00 0.00 0.00 0.00 0.00 0.00 0.00 0.00 0.00 0.00 0.00 0.00 0.00 0.00 0.00 0.00 0.00 0.00 0.01 0.01 0.02 0.03 0.01 0.04 0.02 0.01 0.02 0.00 0.00 0.00 0.00 0.00 0.00 0.00 0.00 0.00 0.00 0.00 0.00 0.00 0.00 0.00 0.00 0.00 0.00 0.00 0.00 0.00 0.00 0.00 0.01 0.01 0.00 0.01 0.00 0.00 0.00 0.00 0.00 0.00 0.00 0.00 0.00 0.00 0.01 0.00 0.00 0.00 0.00 0.01 0.00 0.01 0.01 0.02 0.01 0.00 0.01 0.00 0.00 0.01
0.00 0.00 0.00 0.00 0.00 0.00 0.00 0.00 0.00 0.00 0.00 0.00 0.00 0.00 0.00 0.00 0.01 0.00 0.00 0.00 0.00 0.00 0.00 0.00 0.00 0.00 0.00 0.00 0.00 0.00 0.00 0.00 0.00 0.00 0.00 0.00 0.00 0.00 0.00 0.01 0.03 0.00 0.04 0.01 0.00 0.00 0.00 0.00 0.00 0.00 0.00 0.00 0.00 0.00 0.00 0.00 0.00 0.00 0.00 0.00 0.00 0.00 0.00 0.00 0.00 0.00 0.00 0.01 0.01 0.00 0.01 0.00 0.00 0.00 0.00 0.01 0.00 0.00 0.00 0.00 0.00 0.00 0.00 0.00 0.00 0.01 0.01 0.01 0.01 0.01 0.01 0.01 0.01 0.01 0.00 0.00 0.00
0.00 0.00 0.00 0.00 0.00 0.00 0.00 0.00 0.00 0.00 0.00 0.00 0.00 0.00 0.00 0.00 0.00 0.00 0.00 0.00 0.00 0.00 0.00 0.00 0.00 0.00 0.00 0.00 0.00 0.00 0.00 0.00 0.00 0.00 0.02 0.02 0.03 0.03 0.00 0.00 0.00 0.03 0.02 0.00 0.00 0.01 0.00 0.00 0.00 0.00 0.00 0.00 0.00 0.00 0.00 0.00 0.00 0.00 0.00 0.00 0.00 0.00 0.00 0.00 0.00 0.00 0.00 0.00 0.00 0.00 0.00 0.01 0.00 0.00 0.00 0.00 0.00 0.00 0.00 0.00 0.00 0.00 0.00 0.00 0.00 0.00 0.00 0.01 0.01 0.01 0.00 0.01 0.00 0.00 0.00 0.00 0.00
0.00 0.00 0.00 0.00 0.00 0.00 0.00 0.00 0.00 0.00 0.00 0.00 0.00 0.00 0.00 0.00 0.00 0.01 0.01 0.00 0.00 0.00 0.00 0.00 0.00 0.00 0.00 0.00 0.00 0.00 0.00 0.00 0.01 0.00 0.01 0.02 0.03 0.00 0.04 0.06 0.00 0.02 0.01 0.07 0.04 0.02 0.00 0.01 0.00 0.00 0.00 0.00 0.00 0.00 0.00 0.00 0.00 0.00 0.00 0.00 0.00 0.00 0.00 0.00 0.00 0.00 0.00 0.00 0.00 0.05 0.00 0.01 0.00 0.00 0.00 0.00 0.00 0.00 0.00 0.00 0.00 0.00 0.00 0.00 0.00 0.00 0.01 0.01 0.01 0.00 0.00 0.00 0.00 0.00 0.00 0.00 0.00
0.00 0.00 0.00 0.00 0.00 0.00 0.00 0.00 0.00 0.00 0.00 0.00 0.00 0.00 0.00 0.02 0.08 0.07 0.01 0.00 0.00 0.00 0.00 0.00 0.00 0.00 0.00 0.00 0.00 0.00 0.00 0.00 0.00 0.00 0.00 0.02 0.01 0.01 0.04 0.03 0.01 0.07 0.07 0.08 0.12 0.05 0.01 0.01 0.00 0.00 0.00 0.00 0.00 0.00 0.00 0.00 0.00 0.00 0.00 0.00 0.00 0.00 0.00 0.00 0.00 0.00 0.03 0.00 0.00 0.03 0.03 0.05 0.02 0.00 0.00 0.00 0.00 0.00 0.00 0.00 0.00 0.00 0.00 0.00 0.00 0.00 0.00 0.00 0.00 0.00 0.00 0.00 0.00 0.00 0.00 0.00 0.00
0.00 0.00 0.00 0.00 0.00 0.00 0.00 0.00 0.00 0.00 0.00 0.00 0.00 0.00 0.00 0.00 0.04 0.03 0.03 0.00 0.00 0.00 0.00 0.00 0.00 0.00 0.00 0.00 0.00 0.00 0.00 0.00 0.00 0.02 0.01 0.00 0.01 0.04 0.04 0.01 0.04 0.05 0.06 0.13 0.11 0.13 0.06 0.02 0.02 0.02 0.00 0.00 0.00 0.00 0.00 0.00 0.00 0.00 0.00 0.00 0.00 0.00 0.00 0.00 0.00 0.00 0.00 0.00 0.00 0.04 0.01 0.00 0.00 0.01 0.00 0.00 0.00 0.00 0.01 0.00 0.00 0.00 0.01 0.00 0.00 0.00 0.00 0.00 0.00 0.00 0.00 0.00 0.00 0.00 0.00 0.00 0.00